星链-1983 (STARLINK-1983 )

导读

STARLINK-1983是美国太空探索技术公司SpaceX星链星座的卫星,于2021年2月16日发射入轨,属于星链星座低轨卫星组网计划的一环。星链星座旨在构建全球卫星互联网通信系统,为全球偏远地区、海洋等网络覆盖薄弱区域提供宽带互联网服务,该卫星的发射助力星链网络覆盖和服务能力进一步扩展。

基本信息
目录编号:
47630
目录名称:
STARLINK-1983
国际标识:
2021-012L
轨道中心:
EARTH
卫星名称:
星链-1983
卫星全名:
星链-1983 (STARLINK-1983 )
卫星状态:
在轨 (已飞行1948 天)
发射日期:
2021-02-16 UTC
国别 :
美国 (US)
星等 :
--
轨道信息
数据来源 国际轨道数据
星历时间: 2026-06-17T22:16:55+0800
1天前
查看轨道信息
半长轴: 6848.802km
偏心率: 0.0001179
轨道倾角: 53.158°
近地点辐角 88.542°
升交点赤经 304.802°
平近点角 271.572°
近地点: 469.857km
远地点: 471.473km
周期: 94.012分钟
每日圈数: 15.317254
详细信息
固有亮度:
5
最大亮度:
2.5
卫星平台:
Starlink V1.0
覆盖范围:
全球
运营商:
太空探索技术公司
运营商所在国:
美国
制造商(研发单位):
太空探索技术公司
制造商所在国:
美国
使用方式:
暂无
卫星简介
星链(Starlink)计划是由太空探索技术公司(SpaceX)提出的一个巨型低轨卫星互联网星座项目,计划在2019年至2024年间在太空搭建由约1.2万颗卫星组成的“星链”网络,其中1584颗将部署在地球上空550千米处的近地轨道,并从2020年开始工作。该卫星仍在工作。
2D轨道图
3D轨道图
轨道高度分析图
轨道倾角分析图
轨道综合分析图
查看轨道综合分析图